Home   Weather   Firenze   Past weeks

Flag for Italy Past Weather in Firenze, Italy — Yesterday and Last 2 Weeks

Now
41 °F

Passing clouds.


Feels Like: 32 °F
Forecast: 38 / 44 °F
Wind: 18 mph from Northeast

Location: Florence / Peretola

Current Time: Jan 18, 2017 at 9:38:37 pm

Latest Report: Jan 18, 2017 at 8:50 pm


Visibility: N/A

Pressure: 30.18 "Hg

Humidity: 53%

Dew Point: 25 °F

Location of FirenzeLocation

Past Weather in Firenze — Graph

°F

Firenze Temperature Yesterday

Maximum temperature yesterday: 39 °F (at 6:20 pm)
Minimum temperature yesterday: 36 °F (at 12:20 am)
Average temperature yesterday: 37 °F

High & Low Weather Summary for the Past Weeks

 TemperatureHumidityPressure
High54 °F (Jan 13, 7:50 am)100% (Jan 5, 4:20 am)30.42 "Hg (Jan 5, 4:20 am)
Low19 °F (Jan 9, 7:50 am)17% (Jan 5, 1:50 pm)29.45 "Hg (Jan 13, 1:20 pm)
Average35 °F65%30.02 "Hg
* Reported Jan 3 8:20 pm — Jan 18 8:20 pm, Firenze, Weather by CustomWeather, © 2017

Note: Actual official high and low records may vary slightly from our data, if they occured in-between our weather recording intervals... More about our weather records

Advertising

Firenze Weather History for the Previous 24 Hours

Scroll right to see more
 ConditionsComfort  
Time TempWeatherWind HumidityBarometerVisibility
8:20 pm
Wed, Jan 18
41 °FPassing clouds.7 mph61%30.18 "HgN/A
7:50 pm41 °FPassing clouds.7 mph61%30.18 "HgN/A
7:20 pm41 °FPassing clouds.7 mph57%30.18 "HgN/A
6:50 pm41 °FPassing clouds.9 mph57%30.15 "HgN/A
6:20 pm41 °FPassing clouds.10 mph57%30.15 "HgN/A
5:50 pm41 °FPassing clouds.10 mph57%30.15 "HgN/A
5:20 pm41 °FPassing clouds.13 mph57%30.15 "HgN/A
4:50 pm41 °FPartly sunny.8 mph53%30.15 "HgN/A
4:20 pm41 °FPartly sunny.9 mph53%30.12 "HgN/A
3:50 pm41 °FPartly sunny.13 mph53%30.12 "HgN/A
3:20 pm43 °FPartly sunny.14 mph49%30.12 "HgN/A
2:50 pm41 °FPartly sunny.10 mph53%30.12 "HgN/A
2:20 pm41 °FPartly sunny.16 mph53%30.09 "HgN/A
1:50 pm41 °FPartly sunny.14 mph53%30.09 "HgN/A
1:20 pm41 °FPartly sunny.13 mph53%30.09 "HgN/A
12:50 pm41 °FPartly sunny.8 mph53%30.09 "HgN/A
12:20 pm39 °FPartly sunny.12 mph56%30.12 "HgN/A
11:50 am39 °FPartly sunny.12 mph56%30.12 "HgN/A
11:20 am39 °FPartly sunny.14 mph56%30.12 "HgN/A
10:50 am39 °FPartly sunny.17 mph56%30.12 "HgN/A
10:20 am39 °FPartly sunny.18 mph56%30.12 "HgN/A
9:50 am39 °FPartly sunny.13 mph56%30.12 "HgN/A
9:20 am39 °FPartly sunny.10 mph56%30.09 "HgN/A
8:50 am39 °FPartly sunny.12 mph52%30.09 "HgN/A
8:20 am39 °FPartly sunny.13 mph52%30.09 "HgN/A
7:50 am39 °FPartly sunny.10 mph52%30.07 "HgN/A
7:20 am37 °FPassing clouds.13 mph56%30.07 "HgN/A
6:50 am39 °FPassing clouds.13 mph52%30.07 "HgN/A
6:20 am39 °FPassing clouds.10 mph52%30.07 "HgN/A
5:50 am39 °FPassing clouds.12 mph52%30.07 "HgN/A
5:20 am39 °FPassing clouds.9 mph52%30.04 "HgN/A
4:50 am39 °FPassing clouds.16 mph52%30.01 "HgN/A
4:20 am39 °FPassing clouds.13 mph52%30.04 "HgN/A
3:50 am37 °FPassing clouds.15 mph56%30.04 "HgN/A
3:20 am37 °FPassing clouds.13 mph56%30.07 "HgN/A
2:50 am39 °FPassing clouds.17 mph52%30.07 "HgN/A
2:20 am39 °FPassing clouds.17 mph52%30.07 "HgN/A
1:50 am39 °FPassing clouds.16 mph52%30.04 "HgN/A
1:20 am39 °FPassing clouds.9 mph52%30.04 "HgN/A
12:50 am39 °FPassing clouds.20 mph52%30.04 "HgN/A
12:20 am39 °FPassing clouds.15 mph52%30.04 "HgN/A
11:50 pm
Tue, Jan 17
39 °FPassing clouds.14 mph52%30.04 "HgN/A
11:20 pm39 °FPassing clouds.16 mph56%30.01 "HgN/A
10:50 pm39 °FPassing clouds.8 mph56%30.04 "HgN/A
10:20 pm39 °FPassing clouds.14 mph56%30.04 "HgN/A
9:50 pm39 °FPassing clouds.15 mph56%30.01 "HgN/A
9:20 pm39 °FPassing clouds.12 mph56%30.01 "HgN/A
Weather by CustomWeather, © 2017

See weather overviewHow to use our weather pages